[[{"header":{"parameterUnit":"m.s-1","parameterCategory":1,"la1":30.2992,"la2":30.254,"lo1":-89.0895,"lo2":-89.0443,"dy":0.0025,"dx":0.0025,"nx":19,"ny":19,"refTime":"2026-05-03T03:00:00:Z","depth":0,"parameterNumber":2,"parameterNumberName":"U-component_of_WINDS"},"data":[0,0,0,1.9907,1.9907,1.9901,1.9901,1.9912,1.9913,0,0,0,0,0,0,0,0,0,0,0,1.9921,1.9922,1.9907,1.9907,1.9901,1.9901,1.9912,1.9913,0,0,0,0,0,0,0,0,0,0,0,1.9921,1.9922,1.9922,1.9907,1.9901,1.9901,1.9912,1.991,0,0,0,0,0,0,0,0,0,0,1.9912,1.9938,1.9921,1.9922,1.9907,1.9901,1.9901,1.9909,1.991,1.9923,0,1.994,0,1.9927,1.9915,1.9915,0,0,0,1.9897,1.9938,1.9925,1.9922,1.9907,1.9902,1.9901,1.9909,1.991,1.9924,1.994,1.994,1.9927,1.9915,1.9915,2.0025,2.0026,0,0,1.9898,1.9927,1.9924,1.9926,1.9929,1.9901,1.9901,1.9909,1.9928,1.994,1.994,1.9927,1.9915,1.9915,2.0024,2.0025,0,0,0,1.9905,1.9928,1.9914,1.9926,1.9923,1.9902,1.9901,1.9928,1.9921,1.994,1.9927,1.9915,1.9916,2.0023,2.0025,2.0099,0,0,0,1.9905,1.9932,1.9915,1.9933,1.9924,1.9926,1.992,1.992,1.992,1.9927,1.9915,1.9916,2.0022,2.0024,2.0095,2.0129,0,0,0,1.9917,1.9933,1.9937,1.9934,1.9933,1.9925,1.9918,1.992,1.9913,1.9915,1.9916,2.0021,2.0023,2.0091,2.0123,2.0164,0,0,0,1.9939,2.0006,1.9939,2.0008,1.9933,1.9972,1.9918,1.9946,1.9956,1.9915,2.0022,2.0024,2.009,2.0119,2.016,2.0203,2.0224,0,0,2.0039,2.0019,2.0057,1.9997,2.0055,1.9971,2.0039,2.0021,1.9995,2.0016,2.0018,2.0096,2.0122,2.0163,2.0336,2.0354,0,0,0,2.0098,2.0126,2.0135,2.0146,2.0133,2.0124,2.0092,2.0085,2.0101,2.0012,2.0123,2.0137,2.016,2.0179,2.0193,2.0209,2.0035,2.0035,2.0035,2.0283,2.0243,2.0302,2.0262,2.0273,2.0238,2.0242,2.0226,2.0186,2.0212,2.0218,2.0327,2.0351,2.0361,2.0379,2.0239,2.0239,2.0239,2.024,2.0423,2.0454,2.0396,2.0432,2.0389,2.0419,2.0386,2.0356,2.0375,2.0321,2.0339,2.0282,2.0381,2.0394,2.0245,2.0244,2.0243,2.0243,2.0242,2.0537,2.0545,2.0535,2.0543,2.0554,2.0511,2.0531,2.0493,2.0457,2.0475,2.0474,2.0472,2.0464,2.0477,2.0478,2.0478,2.0478,2.0479,2.0479,2.0659,2.0645,2.0667,2.0656,2.0656,2.0651,2.0614,2.0612,2.06,2.057,2.057,2.0524,2.04,2.0367,2.0485,2.0484,2.0483,2.0482,2.0482,2.0813,2.0771,2.0805,2.0805,2.0787,2.0798,2.0748,2.0747,2.074,2.075,2.07,2.0615,2.0592,2.058,2.0553,2.0711,2.0711,2.0711,2.0711,2.0907,2.0891,2.0915,2.0916,2.0912,2.087,2.0906,2.0877,2.084,2.0832,2.0804,2.0766,2.0756,2.0737,2.0722,2.0696,2.0887,2.0887,2.0887,2.0997,2.0978,2.1018,2.0981,2.0963,2.0948,2.098,2.0982,2.0932,2.0894,2.0824,2.0817,2.0755,2.0737,2.0697,2.0674,2.0626,0,0]},{"header":{"parameterUnit":"m.s-1","parameterCategory":1,"la1":30.2992,"la2":30.254,"lo1":-89.0895,"lo2":-89.0443,"dy":0.0025,"dx":0.0025,"nx":19,"ny":19,"refTime":"2026-05-03T03:00:00:Z","depth":0,"parameterNumber":3,"parameterNumberName":"V-component_of_WINDS"},"data":[0,0,0,1.4029,1.403,1.4094,1.4095,1.4176,1.4177,0,0,0,0,0,0,0,0,0,0,0,1.401,1.4011,1.4028,1.403,1.4094,1.4095,1.4176,1.4177,0,0,0,0,0,0,0,0,0,0,0,1.401,1.4011,1.4011,1.403,1.4094,1.4095,1.4175,1.4127,0,0,0,0,0,0,0,0,0,0,1.4065,1.4049,1.4011,1.4011,1.4031,1.4094,1.4095,1.4125,1.413,1.4146,0,1.4162,0,1.4171,1.4182,1.4182,0,0,0,1.403,1.4045,1.4061,1.4012,1.4031,1.4094,1.4065,1.4128,1.4134,1.4154,1.4164,1.4167,1.4172,1.4183,1.4183,1.4279,1.428,0,0,1.4026,1.4023,1.4057,1.4065,1.4056,1.4063,1.4067,1.4131,1.4142,1.4164,1.4168,1.4173,1.4183,1.4184,1.4279,1.428,0,0,0,1.4016,1.402,1.4035,1.4062,1.4073,1.4065,1.407,1.4139,1.4144,1.4169,1.4174,1.4184,1.4185,1.4279,1.4279,1.4299,0,0,0,1.4014,1.4014,1.4033,1.4032,1.4072,1.4107,1.4076,1.414,1.4147,1.4174,1.4184,1.4185,1.4278,1.4279,1.4297,1.4309,0,0,0,1.4006,1.4013,1.4023,1.4032,1.4059,1.4106,1.4115,1.4141,1.415,1.4182,1.4186,1.4278,1.4279,1.4296,1.4307,1.4333,0,0,0,1.3996,1.4041,1.4023,1.4074,1.4058,1.4118,1.4115,1.416,1.419,1.4184,1.4278,1.4279,1.4295,1.4306,1.4331,1.4354,1.4363,0,0,1.4051,1.4048,1.4078,1.4064,1.4125,1.4109,1.4173,1.4204,1.421,1.4256,1.4258,1.4298,1.4307,1.4332,1.4415,1.4423,0,0,0,1.4094,1.4116,1.4133,1.4161,1.4184,1.4205,1.4226,1.4237,1.4275,1.4233,1.4314,1.432,1.4335,1.4346,1.4352,1.4364,1.4284,1.4284,1.4284,1.4168,1.4172,1.4221,1.4232,1.4259,1.4278,1.4299,1.4317,1.4315,1.4333,1.4347,1.4397,1.441,1.4415,1.4428,1.4359,1.4359,1.436,1.436,1.4249,1.428,1.4271,1.4317,1.432,1.4357,1.4376,1.4372,1.4407,1.4388,1.4401,1.4381,1.4423,1.4434,1.4361,1.4361,1.4361,1.4361,1.436,1.4298,1.4313,1.4324,1.4362,1.439,1.4398,1.443,1.4432,1.4434,1.4447,1.4461,1.446,1.446,1.4453,1.4453,1.4453,1.4453,1.4454,1.4454,1.4346,1.4357,1.4385,1.441,1.4425,1.4446,1.4462,1.4478,1.4495,1.4494,1.4494,1.4488,1.4426,1.441,1.4456,1.4456,1.4456,1.4455,1.4455,1.4428,1.4408,1.445,1.4466,1.4493,1.4519,1.4519,1.4549,1.4562,1.4577,1.4567,1.4521,1.4518,1.4513,1.45,1.4567,1.4567,1.4567,1.4567,1.447,1.4467,1.4508,1.4532,1.4556,1.4558,1.4603,1.4614,1.4623,1.4631,1.462,1.4603,1.4598,1.4598,1.4591,1.4579,1.4665,1.4665,1.4665,1.4519,1.4518,1.4558,1.4564,1.4585,1.4601,1.4643,1.4669,1.4675,1.4669,1.4636,1.4632,1.4603,1.4594,1.459,1.4579,1.4557,0,0]}]]